Regional Weather Roundup
Issued by NWS Charleston, WV

Home | Current Version | Previous Version | Text Only | Print | Product List | Glossary On
Versions: 1 2 3 4 5 6 7 8 9 10 11 12 13 14 15 16 17 18 19 20 21 22 23 24 25 26 27 28 29 30 31 32 33 34 35 36 37 38 39 40 41 42 43 44 45 46 47 48 49 50
000
ASUS41 KRLX 132110
RWRRLX
West Virginia Regional Weather Roundup
National Weather Service Charleston WV
400 PM EST WED DEC 13 2017

Note: "fair" indicates few or no clouds below 12,000 feet with no
significant weather and/or obstructions to visibility.

WVZ003-132200-
Northern Panhandle of West Virginia

CITY           SKY/WX    TMP DP  RH WIND       PRES   REMARKS
WHEELING       LGT SNOW  20  16  84 SE8       29.59F FOG
$$

WVZ009-132200-
Northwest West Virginia

CITY           SKY/WX    TMP DP  RH WIND       PRES   REMARKS
PARKERSBURG    CLOUDY    28   8  43 S10       29.65F
$$

WVZ006-132200-
Western West Virginia

CITY           SKY/WX    TMP DP  RH WIND       PRES   REMARKS
HUNTINGTON     CLOUDY    36   8  31 S5        29.60F
$$

WVZ015-132200-
West Central West Virginia

CITY           SKY/WX    TMP DP  RH WIND       PRES   REMARKS
CHARLESTON     CLOUDY    33  10  38 SE7       29.61F
$$

WVZ022-031-132200-
North Central West Virginia

CITY           SKY/WX    TMP DP  RH WIND       PRES   REMARKS
CLARKSBURG     CLOUDY    27   6  41 S6        29.67F
MORGANTOWN     LGT SNOW  22  13  68 S8        29.66F
$$

WVZ025-035-042-045-132200-
Southern West Virginia

CITY           SKY/WX    TMP DP  RH WIND       PRES   REMARKS
BECKLEY        CLOUDY    32  13  45 S10       29.60F
LOGAN          CLOUDY    36  10  35 VRB5G18   29.59F
BLUEFIELD      CLOUDY    30  11  45 S7        29.64F
LEWISBURG      CLOUDY    31  14  49 S6        29.66F
$$

WVZ047-132200-
Northern Mountains of West Virginia

CITY           SKY/WX    TMP DP  RH WIND       PRES   REMARKS
ELKINS         CLOUDY    27   9  46 CALM      29.64F
$$

WVZ052-132200-
Eastern Panhandle of West Virginia

CITY           SKY/WX    TMP DP  RH WIND       PRES   REMARKS
MARTINSBURG    CLEAR     30   8  39 W8        29.72S
PETERSBURG     CLOUDY    33  13  44 S5        29.69F
$$



USA.gov is the U.S. government's official web portal to all federal, state and local government web resources and services.